NOAA 16 DEB, 41073

Orbit data source: Space-Track

NOAA 16 DEB, 41073 is space debris in SSO originally from a launch on Thu, 21 Sep 2000 UTC launched from the Air Force Western Test Range (AFWTR). Debris objects in space refer to the collection of defunct objects orbiting the Earth. Examples of debris include non-operational satellites, rocket bodies, and fragments generated from explosions, collisions, or faulty payload assembly.

Loading next visibility...
Identifier
41073, 2000-055AG
Orbit
SSO
Country
Flag of USUS
Related business
Manufacturer
Unknown
Mission
Spacecraft
Bus & Motor
Unknown
Mass
Unknown
Launch date (UTC)
2000-09-21 (25 years ago)
Launch vehicle
Unknown
Launch site
Air Force Western Test Range (AFWTR)
Object type
Payload
Rocket body
Debris
Shape & HBR
Unknown shape, 0.1 m
Radar Cross Section
Small (<0.1 m²)

Expand to show TLE details & history
Last TLE update: 7 hours ago

TLE from 7 hours ago
0 NOAA 16 DEB
1 41073U 00055AG  26034.24352213  .00003990  00000-0  15022-2 0  9995
2 41073  98.7793 145.7621 0019723 207.2643 152.7506 14.31933129528201
Epoch: 2026-02-03T05:50Z
TLE epoch observation values (Epoch: 2026-02-03T05:50:40.312Z)
Latitude
-0°
Longitude
-75.33311°
Altitude
800.774 km
Speed
7.447 km/s
True Right ascension
09h 43m 02s
True Declination
0° 00' 00"
Sunlit
Object was in full shadow at epoch
Visualization orbit readout
Latitude
Unknown
Longitude
Unknown
Altitude
Unknown
Speed
Unknown
Apparent Right ascension
Unknown
Apparent Declination
Unknown
Sunlit
N/A
Visualization observer readout
Local Sidereal Time
14:22:11
Azimuth
Unknown
Elevation
Unknown
Doppler factor
Unknown
Orbital elements
Apogee altitude
796.545 km
Perigee altitude
768.3 km
Semi-major axis
7,160.559 km
Eccentricity
0.00197
Inclination
98.7793°
RAAN
145.7621°
Arg. of periapsis
207.2643°
True anomaly
152.85386°
Mean anomaly
152.7506°
Eccentric anomaly
152.80225°
Mean motion
3.58198 °/min
Orbital period
100.5 mins
BSTAR
0.0015022
Loading maneuver chart data...
Computing Atmospheric mass density...
Loading historical data...
Loading historical data...
Loading historical data...
Loading historical data...
Loading historical data...
Loading historical data...
Loading historical data...

Documentation

Showing up to 5 results
|